Time,TemperatureF,DewpointF,PressureIn,WindDirection,WindDirectionDegrees,WindSpeedMPH,WindSpeedGustMPH,Humidity,HourlyPrecipIn,Conditions,Clouds,dailyrainin,SoftwareType,DateUTC
2013-07-04 00:01:00,66.0,52.6,29.77,South,179,4.0,6.0,62,0.00,,,0.00,VWS V14.01,2013-07-04 05:01:00,
2013-07-04 00:06:00,66.0,52.6,29.77,South,179,2.0,5.0,62,0.00,,,0.00,VWS V14.01,2013-07-04 05:06:00,
2013-07-04 00:11:00,66.0,52.2,29.77,SSE,152,4.0,7.0,61,0.00,,,0.00,VWS V14.01,2013-07-04 05:11:00,
2013-07-04 00:16:00,66.1,52.3,29.77,SSE,152,2.0,7.0,61,0.00,,,0.00,VWS V14.01,2013-07-04 05:16:00,
2013-07-04 00:21:00,66.1,51.8,29.76,SSE,160,1.0,6.0,60,0.00,,,0.00,VWS V14.01,2013-07-04 05:21:00,
2013-07-04 00:26:00,66.3,52.0,29.76,SSE,160,3.0,6.0,60,0.00,,,0.00,VWS V14.01,2013-07-04 05:26:00,
2013-07-04 00:31:00,66.3,51.1,29.76,SSE,164,2.0,6.0,58,0.00,,,0.00,VWS V14.01,2013-07-04 05:31:00,
2013-07-04 00:36:00,66.3,51.1,29.76,SSE,165,2.0,6.0,58,0.00,,,0.00,VWS V14.01,2013-07-04 05:36:00,
2013-07-04 00:41:00,66.3,51.1,29.76,SSE,165,2.0,6.0,58,0.00,,,0.00,VWS V14.01,2013-07-04 05:41:00,
2013-07-04 00:46:00,66.3,51.1,29.76,SSE,165,0.0,6.0,58,0.00,,,0.00,VWS V14.01,2013-07-04 05:46:00,
2013-07-04 00:51:00,66.3,50.6,29.76,SSE,165,2.0,4.0,57,0.00,,,0.00,VWS V14.01,2013-07-04 05:51:00,
2013-07-04 00:56:00,66.1,50.9,29.76,SSE,165,2.0,4.0,58,0.00,,,0.00,VWS V14.01,2013-07-04 05:56:00,
2013-07-04 01:01:00,66.1,50.9,29.76,SSE,165,0.0,4.0,58,0.00,,,0.00,VWS V14.01,2013-07-04 06:01:00,
2013-07-04 01:06:00,66.1,50.0,29.76,SE,144,2.0,6.0,56,0.00,,,0.00,VWS V14.01,2013-07-04 06:06:00,
2013-07-04 01:11:00,66.0,50.8,29.76,SE,144,0.0,6.0,58,0.00,,,0.00,VWS V14.01,2013-07-04 06:11:00,
2013-07-04 01:16:00,65.8,50.6,29.76,SE,144,0.0,6.0,58,0.00,,,0.00,VWS V14.01,2013-07-04 06:16:00,
2013-07-04 01:21:00,65.8,51.1,29.75,SE,144,0.0,2.0,59,0.00,,,0.00,VWS V14.01,2013-07-04 06:21:00,
2013-07-04 01:26:00,65.5,50.3,29.75,SE,144,0.0,3.0,58,0.00,,,0.00,VWS V14.01,2013-07-04 06:26:00,
2013-07-04 01:31:00,65.3,50.2,29.75,SE,144,2.0,3.0,58,0.00,,,0.00,VWS V14.01,2013-07-04 06:31:00,
2013-07-04 01:36:00,65.3,50.2,29.75,SSE,165,2.0,5.0,58,0.00,,,0.00,VWS V14.01,2013-07-04 06:36:00,
2013-07-04 01:41:00,65.5,50.3,29.75,SSW,212,5.0,8.0,58,0.00,,,0.00,VWS V14.01,2013-07-04 06:41:00,
2013-07-04 01:46:00,66.0,49.4,29.75,SSW,195,7.0,10.0,55,0.00,,,0.00,VWS V14.01,2013-07-04 06:46:00,
2013-07-04 01:51:00,66.3,49.7,29.75,South,185,6.0,7.0,55,0.00,,,0.00,VWS V14.01,2013-07-04 06:51:00,
2013-07-04 01:56:00,66.4,49.8,29.75,SSW,192,6.0,10.0,55,0.00,,,0.00,VWS V14.01,2013-07-04 06:56:00,
2013-07-04 02:01:00,66.6,49.0,29.75,South,184,7.0,11.0,53,0.00,,,0.00,VWS V14.01,2013-07-04 07:01:00,
2013-07-04 02:06:00,66.6,50.0,29.74,SSW,199,7.0,8.0,55,0.00,,,0.00,VWS V14.01,2013-07-04 07:06:00,
2013-07-04 02:11:00,66.6,50.0,29.74,South,172,6.0,11.0,55,0.00,,,0.00,VWS V14.01,2013-07-04 07:11:00,
2013-07-04 02:16:00,66.8,49.6,29.74,South,188,4.0,11.0,54,0.00,,,0.00,VWS V14.01,2013-07-04 07:16:00,
2013-07-04 02:21:00,66.6,50.0,29.74,South,186,5.0,11.0,55,0.00,,,0.00,VWS V14.01,2013-07-04 07:21:00,
2013-07-04 02:26:00,66.8,49.6,29.74,South,185,5.0,11.0,54,0.00,,,0.00,VWS V14.01,2013-07-04 07:26:00,
2013-07-04 02:31:00,66.8,49.6,29.74,SSW,200,5.0,11.0,54,0.00,,,0.00,VWS V14.01,2013-07-04 07:31:00,
2013-07-04 02:36:00,66.9,49.2,29.74,SSW,202,6.0,10.0,53,0.00,,,0.00,VWS V14.01,2013-07-04 07:36:00,
2013-07-04 02:41:00,67.1,49.9,29.74,South,186,10.0,10.0,54,0.00,,,0.00,VWS V14.01,2013-07-04 07:41:00,
2013-07-04 02:46:00,67.1,49.9,29.74,South,182,9.0,12.0,54,0.00,,,0.00,VWS V14.01,2013-07-04 07:46:00,
2013-07-04 02:51:00,67.1,50.4,29.74,SSW,193,7.0,10.0,55,0.00,,,0.00,VWS V14.01,2013-07-04 07:51:00,
2013-07-04 02:56:00,66.9,49.2,29.74,South,185,7.0,11.0,53,0.00,,,0.00,VWS V14.01,2013-07-04 07:56:00,
2013-07-04 03:01:00,66.9,48.7,29.74,SSW,192,6.0,12.0,52,0.00,,,0.00,VWS V14.01,2013-07-04 08:01:00,
2013-07-04 03:06:00,66.9,48.7,29.74,South,191,7.0,14.0,52,0.00,,,0.00,VWS V14.01,2013-07-04 08:06:00,
2013-07-04 03:11:00,66.9,49.7,29.74,SSW,209,10.0,14.0,54,0.00,,,0.00,VWS V14.01,2013-07-04 08:11:00,
2013-07-04 03:16:00,66.8,49.1,29.74,South,188,10.0,14.0,53,0.00,,,0.00,VWS V14.01,2013-07-04 08:16:00,
2013-07-04 03:21:00,66.9,49.7,29.73,South,169,5.0,12.0,54,0.00,,,0.00,VWS V14.01,2013-07-04 08:21:00,
2013-07-04 03:26:00,66.8,49.6,29.73,SSW,199,8.0,12.0,54,0.00,,,0.00,VWS V14.01,2013-07-04 08:26:00,
2013-07-04 03:31:00,66.6,49.0,29.73,SSW,196,9.0,12.0,53,0.00,,,0.00,VWS V14.01,2013-07-04 08:31:00,
2013-07-04 03:36:00,66.6,49.5,29.73,South,171,7.0,14.0,54,0.00,,,0.00,VWS V14.01,2013-07-04 08:36:00,
2013-07-04 03:41:00,66.4,50.2,29.73,SSW,196,5.0,14.0,56,0.00,,,0.00,VWS V14.01,2013-07-04 08:41:00,
2013-07-04 03:46:00,66.4,49.3,29.73,SSW,196,7.0,14.0,54,0.00,,,0.00,VWS V14.01,2013-07-04 08:46:00,
2013-07-04 03:51:00,66.3,49.7,29.73,South,191,7.0,12.0,55,0.00,,,0.00,VWS V14.01,2013-07-04 08:51:00,
2013-07-04 03:56:00,66.3,49.7,29.73,SSW,198,10.0,16.0,55,0.00,,,0.00,VWS V14.01,2013-07-04 08:56:00,
2013-07-04 04:01:00,66.3,49.2,29.73,SSW,206,7.0,16.0,54,0.00,,,0.00,VWS V14.01,2013-07-04 09:01:00,
2013-07-04 04:06:00,66.1,50.0,29.73,South,182,7.0,14.0,56,0.00,,,0.00,VWS V14.01,2013-07-04 09:06:00,
2013-07-04 04:11:00,66.3,49.7,29.73,South,186,7.0,14.0,55,0.00,,,0.00,VWS V14.01,2013-07-04 09:11:00,
2013-07-04 04:16:00,66.3,49.7,29.73,SSW,196,5.0,14.0,55,0.00,,,0.00,VWS V14.01,2013-07-04 09:16:00,
2013-07-04 04:21:00,66.1,50.4,29.73,SSW,193,10.0,13.0,57,0.00,,,0.00,VWS V14.01,2013-07-04 09:21:00,
2013-07-04 04:26:00,66.1,49.5,29.73,South,184,7.0,14.0,55,0.00,,,0.00,VWS V14.01,2013-07-04 09:26:00,
2013-07-04 04:31:00,66.0,49.9,29.73,SSW,199,7.0,14.0,56,0.00,,,0.00,VWS V14.01,2013-07-04 09:31:00,
2013-07-04 04:36:00,65.8,49.7,29.73,SSW,202,10.0,11.0,56,0.00,,,0.00,VWS V14.01,2013-07-04 09:36:00,
2013-07-04 04:41:00,65.6,49.0,29.73,SSW,198,6.0,12.0,55,0.00,,,0.00,VWS V14.01,2013-07-04 09:41:00,
2013-07-04 04:46:00,65.3,50.2,29.73,SSW,192,6.0,12.0,58,0.00,,,0.00,VWS V14.01,2013-07-04 09:46:00,
2013-07-04 04:51:00,65.2,49.6,29.73,SSW,196,5.0,13.0,57,0.00,,,0.00,VWS V14.01,2013-07-04 09:51:00,
2013-07-04 04:56:00,65.0,49.9,29.73,South,189,6.0,13.0,58,0.00,,,0.00,VWS V14.01,2013-07-04 09:56:00,
2013-07-04 05:01:00,64.8,50.2,29.73,SSW,196,7.0,13.0,59,0.00,,,0.00,VWS V14.01,2013-07-04 10:01:00,
2013-07-04 05:06:00,64.7,49.1,29.73,SSW,209,7.0,10.0,57,0.00,,,0.00,VWS V14.01,2013-07-04 10:06:00,
2013-07-04 05:11:00,64.3,49.7,29.73,SSW,206,7.0,12.0,59,0.00,,,0.00,VWS V14.01,2013-07-04 10:11:00,
2013-07-04 05:16:00,64.2,49.6,29.73,South,182,7.0,12.0,59,0.00,,,0.00,VWS V14.01,2013-07-04 10:16:00,
2013-07-04 05:21:00,64.0,49.8,29.73,South,191,3.0,8.0,60,0.00,,,0.00,VWS V14.01,2013-07-04 10:21:00,
2013-07-04 05:26:00,63.9,49.3,29.73,SSW,200,5.0,9.0,59,0.00,,,0.00,VWS V14.01,2013-07-04 10:26:00,
2013-07-04 05:31:00,63.7,50.5,29.73,SSW,202,5.0,9.0,62,0.00,,,0.00,VWS V14.01,2013-07-04 10:31:00,
2013-07-04 05:36:00,63.5,50.3,29.73,SSW,198,5.0,7.0,62,0.00,,,0.00,VWS V14.01,2013-07-04 10:36:00,
2013-07-04 05:41:00,63.4,50.2,29.73,SSW,198,3.0,7.0,62,0.00,,,0.00,VWS V14.01,2013-07-04 10:41:00,
2013-07-04 05:46:00,63.2,50.4,29.73,SSW,198,4.0,7.0,63,0.00,,,0.00,VWS V14.01,2013-07-04 10:46:00,
2013-07-04 05:51:00,63.1,51.2,29.74,SSW,198,2.0,5.0,65,0.00,,,0.00,VWS V14.01,2013-07-04 10:51:00,
2013-07-04 05:56:00,63.1,50.3,29.74,SSW,195,2.0,6.0,63,0.00,,,0.00,VWS V14.01,2013-07-04 10:56:00,
2013-07-04 06:01:00,62.9,50.5,29.74,SSE,162,2.0,6.0,64,0.00,,,0.00,VWS V14.01,2013-07-04 11:01:00,
2013-07-04 06:06:00,62.9,50.5,29.74,SSE,162,3.0,5.0,64,0.00,,,0.00,VWS V14.01,2013-07-04 11:06:00,
2013-07-04 06:11:00,62.9,50.5,29.74,SSE,165,2.0,5.0,64,0.00,,,0.00,VWS V14.01,2013-07-04 11:11:00,
2013-07-04 06:16:00,62.9,50.5,29.74,SSE,165,2.0,5.0,64,0.00,,,0.00,VWS V14.01,2013-07-04 11:16:00,
2013-07-04 06:21:00,62.7,50.8,29.73,SSE,165,1.0,5.0,65,0.00,,,0.00,VWS V14.01,2013-07-04 11:21:00,
2013-07-04 06:26:00,62.7,50.8,29.73,SSE,165,1.0,5.0,65,0.00,,,0.00,VWS V14.01,2013-07-04 11:26:00,
2013-07-04 06:31:00,62.6,50.7,29.73,SSE,165,1.0,5.0,65,0.00,,,0.00,VWS V14.01,2013-07-04 11:31:00,
2013-07-04 06:36:00,62.6,50.7,29.74,SSE,165,0.0,0.0,65,0.00,,,0.00,VWS V14.01,2013-07-04 11:36:00,
2013-07-04 06:41:00,62.6,51.1,29.74,SSE,165,0.0,0.0,66,0.00,,,0.00,VWS V14.01,2013-07-04 11:41:00,
2013-07-04 06:46:00,62.4,50.9,29.74,SSE,165,0.0,0.0,66,0.00,,,0.00,VWS V14.01,2013-07-04 11:46:00,
2013-07-04 06:52:00,62.4,51.3,29.74,SSE,165,0.0,0.0,67,0.00,,,0.00,VWS V14.01,2013-07-04 11:52:00,
2013-07-04 06:57:00,62.4,51.3,29.74,SSE,165,0.0,0.0,67,0.00,,,0.00,VWS V14.01,2013-07-04 11:57:00,
2013-07-04 07:02:00,62.3,51.6,29.74,SSE,165,0.0,0.0,68,0.00,,,0.00,VWS V14.01,2013-07-04 12:02:00,
2013-07-04 07:07:00,62.3,51.6,29.75,SSE,165,0.0,0.0,68,0.00,,,0.00,VWS V14.01,2013-07-04 12:07:00,
2013-07-04 07:12:00,62.1,51.8,29.75,SSE,165,0.0,0.0,69,0.00,,,0.00,VWS V14.01,2013-07-04 12:12:00,
2013-07-04 07:17:00,62.1,51.8,29.76,SSE,165,2.0,3.0,69,0.00,,,0.00,VWS V14.01,2013-07-04 12:17:00,
2013-07-04 07:22:00,62.3,52.0,29.76,SSE,165,2.0,4.0,69,0.00,,,0.00,VWS V14.01,2013-07-04 12:22:00,
2013-07-04 07:27:00,62.4,51.7,29.76,SSE,165,4.0,5.0,68,0.00,,,0.00,VWS V14.01,2013-07-04 12:27:00,
2013-07-04 07:32:00,62.6,51.9,29.75,SSE,165,3.0,6.0,68,0.00,,,0.00,VWS V14.01,2013-07-04 12:32:00,
2013-07-04 07:37:00,62.7,51.6,29.75,SSE,165,3.0,5.0,67,0.00,,,0.00,VWS V14.01,2013-07-04 12:37:00,
2013-07-04 07:42:00,63.1,52.4,29.75,SSE,165,2.0,5.0,68,0.00,,,0.00,VWS V14.01,2013-07-04 12:42:00,
2013-07-04 07:47:00,63.2,52.9,29.76,SSE,165,1.0,5.0,69,0.00,,,0.00,VWS V14.01,2013-07-04 12:47:00,
2013-07-04 07:52:00,63.4,52.3,29.76,SSE,165,4.0,6.0,67,0.00,,,0.00,VWS V14.01,2013-07-04 12:52:00,
2013-07-04 07:57:00,63.7,53.3,29.76,SSE,165,2.0,6.0,69,0.00,,,0.00,VWS V14.01,2013-07-04 12:57:00,
2013-07-04 08:02:00,64.0,52.4,29.76,SSE,165,4.0,6.0,66,0.00,,,0.00,VWS V14.01,2013-07-04 13:02:00,
2013-07-04 08:07:00,64.3,52.7,29.76,South,185,5.0,7.0,66,0.00,,,0.00,VWS V14.01,2013-07-04 13:07:00,
2013-07-04 08:12:00,64.5,52.9,29.76,South,188,4.0,7.0,66,0.00,,,0.00,VWS V14.01,2013-07-04 13:12:00,
2013-07-04 08:17:00,64.7,52.7,29.76,South,188,7.0,7.0,65,0.00,,,0.00,VWS V14.01,2013-07-04 13:17:00,
2013-07-04 08:22:00,64.7,53.1,29.76,South,188,3.0,6.0,66,0.00,,,0.00,VWS V14.01,2013-07-04 13:22:00,
2013-07-04 08:27:00,64.8,53.2,29.76,South,188,5.0,6.0,66,0.00,,,0.00,VWS V14.01,2013-07-04 13:27:00,
2013-07-04 08:32:00,65.0,52.1,29.76,South,189,5.0,6.0,63,0.00,,,0.00,VWS V14.01,2013-07-04 13:32:00,
2013-07-04 08:37:00,65.2,52.3,29.76,South,189,5.0,6.0,63,0.00,,,0.00,VWS V14.01,2013-07-04 13:37:00,
2013-07-04 08:42:00,65.3,52.8,29.76,South,182,3.0,6.0,64,0.00,,,0.00,VWS V14.01,2013-07-04 13:42:00,
2013-07-04 08:47:00,65.6,52.7,29.76,South,188,2.0,8.0,63,0.00,,,0.00,VWS V14.01,2013-07-04 13:47:00,
2013-07-04 08:52:00,66.0,53.1,29.76,South,191,4.0,7.0,63,0.00,,,0.00,VWS V14.01,2013-07-04 13:52:00,
2013-07-04 08:57:00,66.3,52.9,29.76,South,188,4.0,8.0,62,0.00,,,0.00,VWS V14.01,2013-07-04 13:57:00,
2013-07-04 09:02:00,66.4,52.1,29.76,South,189,3.0,8.0,60,0.00,,,0.00,VWS V14.01,2013-07-04 14:02:00,
2013-07-04 09:07:00,66.9,53.5,29.76,South,176,3.0,5.0,62,0.00,,,0.00,VWS V14.01,2013-07-04 14:07:00,
2013-07-04 09:12:00,67.6,52.8,29.76,South,182,3.0,8.0,59,0.00,,,0.00,VWS V14.01,2013-07-04 14:12:00,
2013-07-04 09:17:00,67.9,52.6,29.76,SSW,196,2.0,10.0,58,0.00,,,0.00,VWS V14.01,2013-07-04 14:17:00,
2013-07-04 09:22:00,68.4,52.1,29.76,SSW,196,5.0,11.0,56,0.00,,,0.00,VWS V14.01,2013-07-04 14:22:00,
2013-07-04 09:27:00,68.9,52.6,29.76,SSW,195,7.0,11.0,56,0.00,,,0.00,VWS V14.01,2013-07-04 14:27:00,
2013-07-04 09:32:00,69.4,52.5,29.76,SSW,200,9.0,11.0,55,0.00,,,0.00,VWS V14.01,2013-07-04 14:32:00,
2013-07-04 09:37:00,69.8,52.9,29.76,SSW,206,10.0,12.0,55,0.00,,,0.00,VWS V14.01,2013-07-04 14:37:00,
2013-07-04 09:42:00,70.1,52.7,29.76,SW,215,10.0,12.0,54,0.00,,,0.00,VWS V14.01,2013-07-04 14:42:00,
2013-07-04 09:47:00,70.4,54.0,29.76,SSW,195,11.0,13.0,56,0.00,,,0.00,VWS V14.01,2013-07-04 14:47:00,
2013-07-04 09:52:00,70.6,52.1,29.76,South,185,6.0,11.0,52,0.00,,,0.00,VWS V14.01,2013-07-04 14:52:00,
2013-07-04 09:57:00,70.9,52.4,29.76,South,184,10.0,12.0,52,0.00,,,0.00,VWS V14.01,2013-07-04 14:57:00,
2013-07-04 10:02:00,71.1,51.5,29.75,South,189,7.0,12.0,50,0.00,,,0.00,VWS V14.01,2013-07-04 15:02:00,
2013-07-04 10:07:00,71.3,53.3,29.75,SSW,198,10.0,12.0,53,0.00,,,0.00,VWS V14.01,2013-07-04 15:07:00,
2013-07-04 10:12:00,71.5,52.4,29.75,SSW,212,7.0,14.0,51,0.00,,,0.00,VWS V14.01,2013-07-04 15:12:00,
2013-07-04 10:17:00,71.8,51.6,29.76,SW,217,10.0,17.0,49,0.00,,,0.00,VWS V14.01,2013-07-04 15:17:00,
2013-07-04 10:22:00,72.1,52.5,29.76,SSW,203,7.0,11.0,50,0.00,,,0.00,VWS V14.01,2013-07-04 15:22:00,
2013-07-04 10:27:00,72.7,53.5,29.76,SSW,202,12.0,12.0,51,0.00,,,0.00,VWS V14.01,2013-07-04 15:27:00,
2013-07-04 10:32:00,73.0,53.3,29.75,SSW,200,11.0,12.0,50,0.00,,,0.00,VWS V14.01,2013-07-04 15:32:00,
2013-07-04 10:37:00,73.3,53.6,29.75,SSW,213,7.0,12.0,50,0.00,,,0.00,VWS V14.01,2013-07-04 15:37:00,
2013-07-04 10:42:00,73.7,54.5,29.75,SSW,200,5.0,14.0,51,0.00,,,0.00,VWS V14.01,2013-07-04 15:42:00,
2013-07-04 10:47:00,74.0,53.7,29.75,SSW,203,7.0,14.0,49,0.00,,,0.00,VWS V14.01,2013-07-04 15:47:00,
2013-07-04 10:52:00,74.6,52.5,29.75,SW,230,8.0,12.0,46,0.00,,,0.00,VWS V14.01,2013-07-04 15:52:00,
2013-07-04 10:57:00,74.7,52.0,29.75,SSW,192,10.0,12.0,45,0.00,,,0.00,VWS V14.01,2013-07-04 15:57:00,
2013-07-04 11:02:00,74.9,53.3,29.74,SSW,196,7.0,12.0,47,0.00,,,0.00,VWS V14.01,2013-07-04 16:02:00,
2013-07-04 11:07:00,75.3,51.3,29.74,SSW,200,10.0,14.0,43,0.00,,,0.00,VWS V14.01,2013-07-04 16:07:00,
2013-07-04 11:12:00,75.6,52.8,29.74,SW,216,12.0,14.0,45,0.00,,,0.00,VWS V14.01,2013-07-04 16:12:00,
2013-07-04 11:17:00,76.0,52.5,29.74,SSW,198,10.0,14.0,44,0.00,,,0.00,VWS V14.01,2013-07-04 16:17:00,
2013-07-04 11:22:00,76.3,52.2,29.74,SSW,206,7.0,14.0,43,0.00,,,0.00,VWS V14.01,2013-07-04 16:22:00,
2013-07-04 11:27:00,77.0,52.8,29.74,South,185,11.0,14.0,43,0.00,,,0.00,VWS V14.01,2013-07-04 16:27:00,
2013-07-04 11:32:00,77.7,52.2,29.73,SSW,196,5.0,14.0,41,0.00,,,0.00,VWS V14.01,2013-07-04 16:32:00,
2013-07-04 11:37:00,77.9,51.7,29.73,South,185,9.0,17.0,40,0.00,,,0.00,VWS V14.01,2013-07-04 16:37:00,
2013-07-04 11:42:00,78.3,52.0,29.73,South,169,12.0,17.0,40,0.00,,,0.00,VWS V14.01,2013-07-04 16:42:00,
2013-07-04 11:47:00,78.8,51.1,29.72,South,186,7.0,17.0,38,0.00,,,0.00,VWS V14.01,2013-07-04 16:47:00,
2013-07-04 11:52:00,79.2,52.1,29.72,SSW,192,7.0,17.0,39,0.00,,,0.00,VWS V14.01,2013-07-04 16:52:00,
2013-07-04 11:57:00,79.6,50.3,29.72,WSW,240,9.0,17.0,36,0.00,,,0.00,VWS V14.01,2013-07-04 16:57:00,
2013-07-04 12:02:00,80.3,52.4,29.72,South,182,5.0,17.0,38,0.00,,,0.00,VWS V14.01,2013-07-04 17:02:00,
2013-07-04 12:07:00,80.9,52.2,29.72,South,171,10.0,12.0,37,0.00,,,0.00,VWS V14.01,2013-07-04 17:07:00,
2013-07-04 12:12:00,80.9,51.5,29.72,SSW,202,10.0,13.0,36,0.00,,,0.00,VWS V14.01,2013-07-04 17:12:00,
2013-07-04 12:17:00,81.1,52.4,29.72,SSW,193,7.0,14.0,37,0.00,,,0.00,VWS V14.01,2013-07-04 17:17:00,
2013-07-04 12:22:00,81.4,49.6,29.72,South,181,8.0,12.0,33,0.00,,,0.00,VWS V14.01,2013-07-04 17:22:00,
2013-07-04 12:27:00,81.8,51.5,29.72,South,191,10.0,12.0,35,0.00,,,0.00,VWS V14.01,2013-07-04 17:27:00,
2013-07-04 12:32:00,82.0,50.9,29.71,SSW,198,15.0,15.0,34,0.00,,,0.00,VWS V14.01,2013-07-04 17:32:00,
2013-07-04 12:37:00,82.4,52.0,29.71,SSW,213,10.0,13.0,35,0.00,,,0.00,VWS V14.01,2013-07-04 17:37:00,
2013-07-04 12:42:00,82.8,52.4,29.71,South,188,14.0,14.0,35,0.00,,,0.00,VWS V14.01,2013-07-04 17:42:00,
2013-07-04 12:47:00,83.0,50.1,29.71,SSW,192,10.0,17.0,32,0.00,,,0.00,VWS V14.01,2013-07-04 17:47:00,
2013-07-04 12:52:00,83.4,52.9,29.71,SSW,198,12.0,12.0,35,0.00,,,0.00,VWS V14.01,2013-07-04 17:52:00,
2013-07-04 12:57:00,83.6,51.5,29.71,SSW,206,10.0,18.0,33,0.00,,,0.00,VWS V14.01,2013-07-04 17:57:00,
2013-07-04 13:02:00,83.8,50.0,29.70,SSW,195,5.0,18.0,31,0.00,,,0.00,VWS V14.01,2013-07-04 18:02:00,
2013-07-04 13:07:00,84.0,48.4,29.70,SSW,199,8.0,18.0,29,0.00,,,0.00,VWS V14.01,2013-07-04 18:07:00,
2013-07-04 13:12:00,84.3,47.7,29.70,SSW,196,8.0,18.0,28,0.00,,,0.00,VWS V14.01,2013-07-04 18:12:00,
2013-07-04 13:17:00,84.7,48.0,29.69,SSW,203,12.0,18.0,28,0.00,,,0.00,VWS V14.01,2013-07-04 18:17:00,
2013-07-04 13:22:00,84.7,47.1,29.69,SSW,193,12.0,14.0,27,0.00,,,0.00,VWS V14.01,2013-07-04 18:22:00,
2013-07-04 13:27:00,84.9,47.2,29.69,SSW,198,7.0,16.0,27,0.00,,,0.00,VWS V14.01,2013-07-04 18:27:00,
2013-07-04 13:32:00,85.1,47.4,29.69,SSW,209,10.0,18.0,27,0.00,,,0.00,VWS V14.01,2013-07-04 18:32:00,
2013-07-04 13:37:00,85.3,46.6,29.69,SSW,198,9.0,17.0,26,0.00,,,0.00,VWS V14.01,2013-07-04 18:37:00,
2013-07-04 13:42:00,85.5,44.6,29.69,SSW,196,10.0,17.0,24,0.00,,,0.00,VWS V14.01,2013-07-04 18:42:00,
2013-07-04 13:47:00,86.1,48.2,29.68,South,181,7.0,17.0,27,0.00,,,0.00,VWS V14.01,2013-07-04 18:47:00,
2013-07-04 13:52:00,86.1,46.2,29.68,SSW,200,7.0,14.0,25,0.00,,,0.00,VWS V14.01,2013-07-04 18:52:00,
2013-07-04 13:57:00,86.5,45.5,29.68,South,182,12.0,16.0,24,0.00,,,0.00,VWS V14.01,2013-07-04 18:57:00,
2013-07-04 14:02:00,86.5,46.5,29.68,SSE,168,4.0,17.0,25,0.00,,,0.00,VWS V14.01,2013-07-04 19:02:00,
2013-07-04 14:07:00,87.0,44.8,29.68,SSW,212,8.0,16.0,23,0.00,,,0.00,VWS V14.01,2013-07-04 19:07:00,
2013-07-04 14:12:00,87.2,46.0,29.68,South,174,7.0,16.0,24,0.00,,,0.00,VWS V14.01,2013-07-04 19:12:00,
2013-07-04 14:17:00,87.2,44.9,29.67,SSW,202,10.0,16.0,23,0.00,,,0.00,VWS V14.01,2013-07-04 19:17:00,
2013-07-04 14:22:00,87.2,47.1,29.67,South,186,5.0,10.0,25,0.00,,,0.00,VWS V14.01,2013-07-04 19:22:00,
2013-07-04 14:27:00,87.4,46.2,29.67,SSW,210,9.0,14.0,24,0.00,,,0.00,VWS V14.01,2013-07-04 19:27:00,
2013-07-04 14:32:00,87.2,44.9,29.67,SSW,200,7.0,15.0,23,0.00,,,0.00,VWS V14.01,2013-07-04 19:32:00,
2013-07-04 14:37:00,87.4,45.1,29.67,SSW,202,10.0,14.0,23,0.00,,,0.00,VWS V14.01,2013-07-04 19:37:00,
2013-07-04 14:42:00,87.2,43.8,29.67,SSW,206,8.0,14.0,22,0.00,,,0.00,VWS V14.01,2013-07-04 19:42:00,
2013-07-04 14:47:00,87.4,42.7,29.67,SSW,195,10.0,14.0,21,0.00,,,0.00,VWS V14.01,2013-07-04 19:47:00,
2013-07-04 14:52:00,87.6,42.9,29.67,South,178,5.0,11.0,21,0.00,,,0.00,VWS V14.01,2013-07-04 19:52:00,
2013-07-04 14:57:00,87.8,44.3,29.67,South,185,5.0,11.0,22,0.00,,,0.00,VWS V14.01,2013-07-04 19:57:00,
2013-07-04 15:02:00,88.0,41.9,29.67,SSW,192,12.0,12.0,20,0.00,,,0.00,VWS V14.01,2013-07-04 20:02:00,
2013-07-04 15:07:00,87.8,44.3,29.67,SSW,209,10.0,15.0,22,0.00,,,0.00,VWS V14.01,2013-07-04 20:07:00,
2013-07-04 15:12:00,87.8,47.6,29.67,South,184,12.0,15.0,25,0.00,,,0.00,VWS V14.01,2013-07-04 20:12:00,
2013-07-04 15:17:00,87.6,44.1,29.66,SSW,202,9.0,15.0,22,0.00,,,0.00,VWS V14.01,2013-07-04 20:17:00,
2013-07-04 15:22:00,87.6,44.1,29.66,SW,236,7.0,12.0,22,0.00,,,0.00,VWS V14.01,2013-07-04 20:22:00,
2013-07-04 15:27:00,87.8,41.8,29.66,SW,216,5.0,12.0,20,0.00,,,0.00,VWS V14.01,2013-07-04 20:27:00,
2013-07-04 15:32:00,88.0,44.4,29.66,SSW,208,10.0,12.0,22,0.00,,,0.00,VWS V14.01,2013-07-04 20:32:00,
2013-07-04 15:37:00,87.8,45.4,29.66,South,189,7.0,13.0,23,0.00,,,0.00,VWS V14.01,2013-07-04 20:37:00,
2013-07-04 15:42:00,88.0,45.6,29.66,SSW,198,5.0,13.0,23,0.00,,,0.00,VWS V14.01,2013-07-04 20:42:00,
2013-07-04 15:47:00,88.2,49.0,29.66,SSW,200,9.0,13.0,26,0.00,,,0.00,VWS V14.01,2013-07-04 20:47:00,
2013-07-04 15:52:00,88.4,45.9,29.66,SSW,208,7.0,10.0,23,0.00,,,0.00,VWS V14.01,2013-07-04 20:52:00,
2013-07-04 15:57:00,88.6,46.1,29.66,South,184,6.0,10.0,23,0.00,,,0.00,VWS V14.01,2013-07-04 20:57:00,
2013-07-04 16:02:00,88.4,45.9,29.66,South,185,7.0,12.0,23,0.00,,,0.00,VWS V14.01,2013-07-04 21:02:00,
2013-07-04 16:07:00,88.4,43.5,29.66,SSE,164,5.0,11.0,21,0.00,,,0.00,VWS V14.01,2013-07-04 21:07:00,
2013-07-04 16:12:00,88.2,46.9,29.66,South,189,7.0,11.0,24,0.00,,,0.00,VWS V14.01,2013-07-04 21:12:00,
2013-07-04 16:17:00,88.4,42.3,29.66,South,174,6.0,11.0,20,0.00,,,0.00,VWS V14.01,2013-07-04 21:17:00,
2013-07-04 16:22:00,88.4,44.8,29.66,South,174,5.0,14.0,22,0.00,,,0.00,VWS V14.01,2013-07-04 21:22:00,
2013-07-04 16:27:00,88.6,46.1,29.66,SSW,195,5.0,14.0,23,0.00,,,0.00,VWS V14.01,2013-07-04 21:27:00,
2013-07-04 16:32:00,88.6,43.7,29.65,SSW,195,2.0,14.0,21,0.00,,,0.00,VWS V14.01,2013-07-04 21:32:00,
2013-07-04 16:37:00,88.6,44.9,29.65,SSW,203,7.0,12.0,22,0.00,,,0.00,VWS V14.01,2013-07-04 21:37:00,
2013-07-04 16:42:00,88.8,45.1,29.65,South,178,5.0,12.0,22,0.00,,,0.00,VWS V14.01,2013-07-04 21:42:00,
2013-07-04 16:47:00,89.0,45.3,29.65,South,184,7.0,12.0,22,0.00,,,0.00,VWS V14.01,2013-07-04 21:47:00,
2013-07-04 16:52:00,89.0,47.6,29.65,SSW,193,3.0,12.0,24,0.00,,,0.00,VWS V14.01,2013-07-04 21:52:00,
2013-07-04 16:57:00,89.0,44.0,29.65,South,176,3.0,12.0,21,0.00,,,0.00,VWS V14.01,2013-07-04 21:57:00,
2013-07-04 17:02:00,89.3,46.7,29.64,South,176,2.0,12.0,23,0.00,,,0.00,VWS V14.01,2013-07-04 22:02:00,
2013-07-04 17:07:00,89.3,44.3,29.64,South,176,3.0,6.0,21,0.00,,,0.00,VWS V14.01,2013-07-04 22:07:00,
2013-07-04 17:12:00,89.3,44.3,29.64,SSW,199,2.0,10.0,21,0.00,,,0.00,VWS V14.01,2013-07-04 22:12:00,
2013-07-04 17:17:00,89.3,43.0,29.64,SSW,198,5.0,10.0,20,0.00,,,0.00,VWS V14.01,2013-07-04 22:17:00,
2013-07-04 17:22:00,89.3,45.5,29.64,SSW,198,0.0,7.0,22,0.00,,,0.00,VWS V14.01,2013-07-04 22:22:00,
2013-07-04 17:27:00,89.5,44.5,29.64,SSW,196,0.0,7.0,21,0.00,,,0.00,VWS V14.01,2013-07-04 22:27:00,
2013-07-04 17:32:00,89.5,45.7,29.64,SSW,202,7.0,7.0,22,0.00,,,0.00,VWS V14.01,2013-07-04 22:32:00,
2013-07-04 17:37:00,89.3,44.3,29.64,South,188,2.0,7.0,21,0.00,,,0.00,VWS V14.01,2013-07-04 22:37:00,
2013-07-04 17:42:00,89.3,46.7,29.64,SSW,192,8.0,8.0,23,0.00,,,0.00,VWS V14.01,2013-07-04 22:42:00,
2013-07-04 17:47:00,89.3,45.5,29.64,SSW,193,2.0,8.0,22,0.00,,,0.00,VWS V14.01,2013-07-04 22:47:00,
2013-07-04 17:52:00,89.3,47.8,29.64,SSW,208,5.0,7.0,24,0.00,,,0.00,VWS V14.01,2013-07-04 22:52:00,
2013-07-04 17:57:00,89.0,44.0,29.64,SSW,199,6.0,10.0,21,0.00,,,0.00,VWS V14.01,2013-07-04 22:57:00,
2013-07-04 18:02:00,88.8,42.6,29.63,SSW,196,2.0,10.0,20,0.00,,,0.00,VWS V14.01,2013-07-04 23:02:00,
2013-07-04 18:07:00,88.8,43.9,29.63,South,189,4.0,8.0,21,0.00,,,0.00,VWS V14.01,2013-07-04 23:07:00,
2013-07-04 18:12:00,88.8,46.3,29.63,South,189,2.0,8.0,23,0.00,,,0.00,VWS V14.01,2013-07-04 23:12:00,
2013-07-04 18:17:00,88.8,46.3,29.63,South,189,3.0,8.0,23,0.00,,,0.00,VWS V14.01,2013-07-04 23:17:00,
2013-07-04 18:22:00,88.6,42.4,29.63,South,188,5.0,10.0,20,0.00,,,0.00,VWS V14.01,2013-07-04 23:22:00,
2013-07-04 18:27:00,88.6,44.9,29.63,South,188,0.0,10.0,22,0.00,,,0.00,VWS V14.01,2013-07-04 23:27:00,
2013-07-04 18:32:00,88.4,45.9,29.63,South,188,0.0,10.0,23,0.00,,,0.00,VWS V14.01,2013-07-04 23:32:00,
2013-07-04 18:37:00,88.2,46.9,29.63,South,188,2.0,3.0,24,0.00,,,0.00,VWS V14.01,2013-07-04 23:37:00,
2013-07-04 18:42:00,88.2,44.6,29.63,South,188,2.0,5.0,22,0.00,,,0.00,VWS V14.01,2013-07-04 23:42:00,
2013-07-04 18:47:00,88.0,46.7,29.63,South,188,2.0,6.0,24,0.00,,,0.00,VWS V14.01,2013-07-04 23:47:00,
2013-07-04 18:52:00,87.8,44.3,29.63,South,175,4.0,6.0,22,0.00,,,0.00,VWS V14.01,2013-07-04 23:52:00,
2013-07-04 18:57:00,87.6,46.4,29.63,South,175,4.0,6.0,24,0.00,,,0.00,VWS V14.01,2013-07-04 23:57:00,
2013-07-04 19:02:00,87.4,48.3,29.63,South,175,1.0,6.0,26,0.00,,,0.00,VWS V14.01,2013-07-05 00:02:00,
2013-07-04 19:07:00,87.0,47.0,29.63,South,175,2.0,5.0,25,0.00,,,0.00,VWS V14.01,2013-07-05 00:07:00,
2013-07-04 19:12:00,86.7,45.6,29.63,South,175,2.0,5.0,24,0.00,,,0.00,VWS V14.01,2013-07-05 00:12:00,
2013-07-04 19:17:00,86.3,45.3,29.62,South,176,2.0,6.0,24,0.00,,,0.00,VWS V14.01,2013-07-05 00:17:00,
2013-07-04 19:22:00,85.9,46.0,29.62,South,176,2.0,4.0,25,0.00,,,0.00,VWS V14.01,2013-07-05 00:22:00,
2013-07-04 19:27:00,85.5,46.7,29.62,South,176,2.0,5.0,26,0.00,,,0.00,VWS V14.01,2013-07-05 00:27:00,
2013-07-04 19:32:00,85.3,47.6,29.63,South,176,2.0,5.0,27,0.00,,,0.00,VWS V14.01,2013-07-05 00:32:00,
2013-07-04 19:37:00,84.9,47.2,29.63,South,176,0.0,3.0,27,0.00,,,0.00,VWS V14.01,2013-07-05 00:37:00,
2013-07-04 19:42:00,84.5,47.8,29.63,South,176,0.0,3.0,28,0.00,,,0.00,VWS V14.01,2013-07-05 00:42:00,
2013-07-04 19:47:00,84.3,46.7,29.63,South,176,0.0,3.0,27,0.00,,,0.00,VWS V14.01,2013-07-05 00:47:00,
2013-07-04 19:52:00,84.1,47.5,29.63,South,178,0.0,5.0,28,0.00,,,0.00,VWS V14.01,2013-07-05 00:52:00,
2013-07-04 19:57:00,83.8,47.2,29.63,South,178,0.0,5.0,28,0.00,,,0.00,VWS V14.01,2013-07-05 00:57:00,
2013-07-04 20:02:00,83.6,47.1,29.63,South,178,1.0,5.0,28,0.00,,,0.00,VWS V14.01,2013-07-05 01:02:00,
2013-07-04 20:07:00,83.4,47.8,29.63,South,178,0.0,3.0,29,0.00,,,0.00,VWS V14.01,2013-07-05 01:07:00,
2013-07-04 20:12:00,83.2,47.7,29.63,South,178,2.0,3.0,29,0.00,,,0.00,VWS V14.01,2013-07-05 01:12:00,
2013-07-04 20:17:00,82.8,47.3,29.63,South,178,0.0,3.0,29,0.00,,,0.00,VWS V14.01,2013-07-05 01:17:00,
2013-07-04 20:22:00,82.6,47.2,29.63,South,178,0.0,2.0,29,0.00,,,0.00,VWS V14.01,2013-07-05 01:22:00,
2013-07-04 20:27:00,82.2,47.7,29.63,South,178,2.0,2.0,30,0.00,,,0.00,VWS V14.01,2013-07-05 01:27:00,
2013-07-04 20:33:00,82.0,47.5,29.63,South,178,0.0,2.0,30,0.00,,,0.00,VWS V14.01,2013-07-05 01:33:00,
2013-07-04 20:38:00,81.6,47.2,29.63,South,178,0.0,2.0,30,0.00,,,0.00,VWS V14.01,2013-07-05 01:38:00,
2013-07-04 20:42:00,81.4,47.9,29.63,South,178,0.0,2.0,31,0.00,,,0.00,VWS V14.01,2013-07-05 01:42:00,
2013-07-04 20:48:00,80.9,48.3,29.63,South,178,0.0,2.0,32,0.00,,,0.00,VWS V14.01,2013-07-05 01:48:00,
2013-07-04 20:53:00,80.7,48.1,29.63,South,178,0.0,4.0,32,0.00,,,0.00,VWS V14.01,2013-07-05 01:53:00,
2013-07-04 20:57:00,80.5,48.0,29.63,South,178,0.0,4.0,32,0.00,,,0.00,VWS V14.01,2013-07-05 01:57:00,
2013-07-04 21:03:00,80.3,48.6,29.63,South,178,0.0,4.0,33,0.00,,,0.00,VWS V14.01,2013-07-05 02:03:00,
2013-07-04 21:08:00,79.9,47.4,29.63,South,178,3.0,7.0,32,0.00,,,0.00,VWS V14.01,2013-07-05 02:08:00,
2013-07-04 21:13:00,79.8,48.2,29.63,South,178,2.0,7.0,33,0.00,,,0.00,VWS V14.01,2013-07-05 02:13:00,
2013-07-04 21:18:00,79.4,48.6,29.62,South,178,2.0,7.0,34,0.00,,,0.00,VWS V14.01,2013-07-05 02:18:00,
2013-07-04 21:23:00,79.0,47.5,29.62,South,178,2.0,5.0,33,0.00,,,0.00,VWS V14.01,2013-07-05 02:23:00,
2013-07-04 21:28:00,78.6,47.1,29.62,South,179,0.0,5.0,33,0.00,,,0.00,VWS V14.01,2013-07-05 02:28:00,
2013-07-04 21:33:00,78.3,46.9,29.63,South,179,1.0,1.0,33,0.00,,,0.00,VWS V14.01,2013-07-05 02:33:00,
2013-07-04 21:38:00,78.1,48.2,29.63,South,178,2.0,3.0,35,0.00,,,0.00,VWS V14.01,2013-07-05 02:38:00,
2013-07-04 21:43:00,77.9,47.3,29.63,South,178,0.0,5.0,34,0.00,,,0.00,VWS V14.01,2013-07-05 02:43:00,
2013-07-04 21:48:00,77.6,47.8,29.63,South,176,2.0,2.0,35,0.00,,,0.00,VWS V14.01,2013-07-05 02:48:00,
2013-07-04 21:53:00,77.4,47.6,29.63,South,176,0.0,5.0,35,0.00,,,0.00,VWS V14.01,2013-07-05 02:53:00,
2013-07-04 21:58:00,77.2,47.5,29.63,South,176,2.0,5.0,35,0.00,,,0.00,VWS V14.01,2013-07-05 02:58:00,
2013-07-04 22:03:00,77.0,46.5,29.64,South,176,2.0,2.0,34,0.00,,,0.00,VWS V14.01,2013-07-05 03:03:00,
2013-07-04 22:08:00,76.7,46.2,29.64,South,176,2.0,3.0,34,0.00,,,0.00,VWS V14.01,2013-07-05 03:08:00,
2013-07-04 22:13:00,76.7,47.0,29.64,South,176,2.0,4.0,35,0.00,,,0.00,VWS V14.01,2013-07-05 03:13:00,
2013-07-04 22:18:00,76.3,48.1,29.64,South,176,1.0,1.0,37,0.00,,,0.00,VWS V14.01,2013-07-05 03:18:00,
2013-07-04 22:23:00,76.1,47.2,29.64,South,176,2.0,5.0,36,0.00,,,0.00,VWS V14.01,2013-07-05 03:23:00,
2013-07-04 22:28:00,76.0,46.4,29.64,South,176,2.0,5.0,35,0.00,,,0.00,VWS V14.01,2013-07-05 03:28:00,
2013-07-04 22:33:00,75.8,45.5,29.64,South,179,3.0,5.0,34,0.00,,,0.00,VWS V14.01,2013-07-05 03:33:00,
2013-07-04 22:38:00,76.0,45.6,29.64,South,179,2.0,7.0,34,0.00,,,0.00,VWS V14.01,2013-07-05 03:38:00,
2013-07-04 22:43:00,76.1,44.9,29.64,South,179,5.0,7.0,33,0.00,,,0.00,VWS V14.01,2013-07-05 03:43:00,
2013-07-04 22:48:00,76.7,43.8,29.64,SSW,212,6.0,7.0,31,0.00,,,0.00,VWS V14.01,2013-07-05 03:48:00,
2013-07-04 22:53:00,77.2,45.1,29.64,SSW,193,5.0,8.0,32,0.00,,,0.00,VWS V14.01,2013-07-05 03:53:00,
2013-07-04 22:58:00,77.9,44.9,29.64,SSW,202,6.0,11.0,31,0.00,,,0.00,VWS V14.01,2013-07-05 03:58:00,
2013-07-04 23:01:00,78.1,45.9,29.64,SSW,198,5.0,12.0,32,0.00,,,0.00,VWS V14.01,2013-07-05 04:01:00,
2013-07-04 23:02:00,78.1,45.0,29.65,SSE,167,5.0,12.0,31,0.00,,,0.00,VWS V14.01,2013-07-05 04:02:00,
2013-07-04 23:07:00,77.9,46.5,29.65,South,171,5.0,8.0,33,0.00,,,0.00,VWS V14.01,2013-07-05 04:07:00,
2013-07-04 23:12:00,77.6,46.2,29.65,South,191,5.0,8.0,33,0.00,,,0.00,VWS V14.01,2013-07-05 04:12:00,
2013-07-04 23:17:00,77.2,45.9,29.64,South,191,3.0,8.0,33,0.00,,,0.00,VWS V14.01,2013-07-05 04:17:00,
2013-07-04 23:22:00,76.8,45.5,29.64,South,188,5.0,7.0,33,0.00,,,0.00,VWS V14.01,2013-07-05 04:22:00,
2013-07-04 23:27:00,76.7,46.2,29.64,South,172,3.0,8.0,34,0.00,,,0.00,VWS V14.01,2013-07-05 04:27:00,
2013-07-04 23:32:00,76.3,46.7,29.63,South,188,6.0,8.0,35,0.00,,,0.00,VWS V14.01,2013-07-05 04:32:00,
2013-07-04 23:37:00,76.1,45.7,29.63,SSW,198,6.0,7.0,34,0.00,,,0.00,VWS V14.01,2013-07-05 04:37:00,
2013-07-04 23:42:00,76.1,48.0,29.63,South,172,7.0,7.0,37,0.00,,,0.00,VWS V14.01,2013-07-05 04:42:00,
2013-07-04 23:47:00,76.0,48.6,29.64,SSW,193,7.0,10.0,38,0.00,,,0.00,VWS V14.01,2013-07-05 04:47:00,
2013-07-04 23:52:00,75.8,47.7,29.64,South,188,5.0,8.0,37,0.00,,,0.00,VWS V14.01,2013-07-05 04:52:00,
2013-07-04 23:57:00,75.4,48.0,29.64,SSW,193,5.0,10.0,38,0.00,,,0.00,VWS V14.01,2013-07-05 04:57:00,